This is the latest recevied weather packets stored in our database for station/object N0NB. If no packets are shown the sender has not sent any weather packets the latest 10 day(s).
| Time | Temp. | Humidity | Pressure | Rain* | Wind** | Luminosity | Snow |
|---|---|---|---|---|---|---|---|
| 1777861816 | 17.78° C | 51% | 1006.3 hPa | 0 mm | - | 0 W/m² | - |
| 1777861216 | 17.78° C | 49% | 1006.1 hPa | 0 mm | - | 0 W/m² | - |
| 1777860616 | 18.33° C | 49% | 1006.5 hPa | 0 mm | - | 0 W/m² | - |
| 1777860016 | 18.33° C | 47% | 1006.3 hPa | 0 mm | - | 0 W/m² | - |
| 1777859416 | 18.89° C | 45% | 1006.1 hPa | 0 mm | - | 0 W/m² | - |
| 1777858816 | 18.89° C | 45% | 1006.1 hPa | 0 mm | - | 0 W/m² | - |
| 1777858216 | 19.44° C | 44% | 1005.8 hPa | 0 mm | - | 0 W/m² | - |
| 1777857616 | 20° C | 43% | 1005.9 hPa | 0 mm | - | 0 W/m² | - |
| 1777857016 | 20.56° C | 44% | 1006 hPa | 0 mm | - | 9 W/m² | - |
| 1777856416 | 21.11° C | 42% | 1006.1 hPa | 0 mm | - | 18 W/m² | - |
| 1777855816 | 22.22° C | 38% | 1006.2 hPa | 0 mm | - | 32 W/m² | - |
| 1777855216 | 22.22° C | 36% | 1006.1 hPa | 0 mm | - | 36 W/m² | - |
| 1777854616 | 22.78° C | 36% | 1006.2 hPa | 0 mm | - | 45 W/m² | - |
| 1777854016 | 22.78° C | 35% | 1006.3 hPa | 0 mm | - | 55 W/m² | - |
| 1777853416 | 23.33° C | 36% | 1006.4 hPa | 0 mm | - | 73 W/m² | - |
| 1777852815 | 23.33° C | 41% | 1006.7 hPa | 0 mm | - | 93 W/m² | - |
| 1777852215 | 23.89° C | 40% | 1006.9 hPa | 0 mm | - | 111 W/m² | - |
| 1777851615 | 25° C | 39% | 1007.1 hPa | 0 mm | - | 140 W/m² | - |
| 1777851015 | 25.56° C | 30% | 1007.1 hPa | 0 mm | - | 152 W/m² | - |
| 1777850416 | 25.56° C | 34% | 1007.3 hPa | 0 mm | - | 174 W/m² | - |
| 1777849815 | 26.11° C | 28% | 1007.5 hPa | 0 mm | - | 224 W/m² | - |
| 1777849215 | 26.11° C | 28% | 1007.6 hPa | 0 mm | - | 215 W/m² | - |
| 1777848615 | 26.11° C | 31% | 1007.6 hPa | 0 mm | - | 407 W/m² | - |
| 1777848015 | 26.11° C | 32% | 1007.6 hPa | 0 mm | - | 462 W/m² | - |
| 1777847415 | 25.56° C | 30% | 1007.6 hPa | 0 mm | - | 192 W/m² | - |
* Rain latest hour (hover to see other rain measurements)
** Current wind speed in m/s (hover to see current wind gust speed)